York, PA

1:06 AM EST on January 21, 2018 (GMT -0500)
York

Weather History for KTHV - February, 2014

Change the Weather History Date:

Friday, February 14, 2014

  Actual Average Record
Temperature  
Mean Temperature 35 °F -  
Max Temperature 42 °F 0 °F 57 °F (2011)
Min Temperature 28 °F - -9 °F (2016)
Degree Days  
Heating Degree Days 30    
Moisture  
Dew Point 22 °F    
Average Humidity 61    
Maximum Humidity 85    
Minimum Humidity 43    
Precipitation  
Precipitation 0.00 in - - ()
Sea Level Pressure  
Sea Level Pressure 29.57 in    
Wind  
Wind Speed 10 mph (West)    
Max Wind Speed 17 mph    
Max Gust Speed 26 mph    
Visibility 10 miles    
Events      
Averages and records for this station are not official NWS values.
T = Trace of Precipitation, MM = Missing Value Source: NWS Daily Summary

Daily Weather History Graph

Daily Weather History Graph

Search for Another Location

Airport or City:

Trip Planner

Search our weather history database for the weather conditions in past years. The results will help you decide how hot, cold, wet, or windy it might be!

Date:

Astronomy

Feb. 14, 2014 Rise Set
Actual Time 7:01 AM EST 5:42 PM EST
Civil Twilight 6:33 AM EST 6:10 PM EST
Nautical Twilight 6:02 AM EST 6:41 PM EST
Astronomical Twilight 5:30 AM EST 7:13 PM EST
Moon 5:44 PM EST (2/14) 6:27 AM EST (2/14)
Length of Visible Light 11h 36m
Length of Day
10h 40m
Full, 100% of the Moon is Illuminated
Feb 14
Full
Feb 14
Full
Feb 22
Last Quarter
Mar 1
New
Mar 8
First Quarter

Hourly Weather History & Observations

Time (EST) Temp. Windchill Dew Point Humidity Pressure Visibility Wind Dir Wind Speed Gust Speed Precip Events Conditions
12:53 AM 35.1 °F 26.9 °F 30.0 °F 82% 29.35 in 10.0 mi WNW 11.5 mph 20.7 mph 0.00 in   Overcast
1:13 AM 35.1 °F 26.9 °F 30.0 °F 82% 29.34 in 10.0 mi WNW 11.5 mph - N/A   Overcast
1:23 AM 36.0 °F 28.0 °F 30.0 °F 79% 29.34 in 10.0 mi WNW 11.5 mph - N/A   Overcast
1:53 AM 36.0 °F 26.0 °F 28.9 °F 76% 29.38 in 10.0 mi WNW 17.3 mph 26.5 mph N/A   Overcast
2:53 AM 34.0 °F 23.8 °F 25.0 °F 70% 29.40 in 10.0 mi West 16.1 mph 25.3 mph N/A   Partly Cloudy
3:53 AM 32.0 °F 22.1 °F 17.1 °F 54% 29.44 in 10.0 mi West 13.8 mph 25.3 mph N/A   Clear
4:53 AM 30.9 °F 22.2 °F 16.0 °F 54% 29.46 in 10.0 mi West 10.4 mph - N/A   Clear
5:53 AM 30.9 °F 22.2 °F 16.0 °F 54% 29.48 in 10.0 mi West 10.4 mph - N/A   Partly Cloudy
6:53 AM 33.1 °F 23.9 °F 14.0 °F 46% 29.49 in 10.0 mi West 12.7 mph 20.7 mph N/A   Partly Cloudy
7:53 AM 34.0 °F 28.0 °F 16.0 °F 48% 29.52 in 10.0 mi West 6.9 mph - N/A   Overcast
8:53 AM 35.1 °F 30.1 °F 19.9 °F 54% 29.54 in 10.0 mi SSW 5.8 mph - N/A   Overcast
9:53 AM 37.9 °F 31.5 °F 21.9 °F 53% 29.55 in 10.0 mi SW 9.2 mph 19.6 mph N/A   Overcast
10:53 AM 39.0 °F 30.6 °F 23.0 °F 53% 29.58 in 10.0 mi West 15.0 mph 23.0 mph N/A   Mostly Cloudy
11:53 AM 41.0 °F 33.1 °F 21.0 °F 45% 29.59 in 10.0 mi West 15.0 mph 26.5 mph N/A   Overcast
12:53 PM 42.1 °F 33.9 °F 21.0 °F 43% 29.59 in 10.0 mi West 17.3 mph 25.3 mph N/A   Partly Cloudy
1:53 PM 42.1 °F 35.7 °F 23.0 °F 47% 29.60 in 10.0 mi West 11.5 mph - N/A   Clear
2:53 PM 42.1 °F 35.2 °F 21.0 °F 43% 29.60 in 10.0 mi WNW 12.7 mph - N/A   Clear
3:53 PM 42.1 °F 36.1 °F 21.0 °F 43% 29.64 in 10.0 mi West 10.4 mph - N/A   Clear
4:53 PM 41.0 °F 39.0 °F 23.0 °F 49% 29.66 in 10.0 mi Variable 3.5 mph - N/A   Clear
5:53 PM 39.0 °F 34.0 °F 21.9 °F 50% 29.71 in 10.0 mi West 6.9 mph - N/A   Clear
6:53 PM 32.0 °F - 24.1 °F 73% 29.74 in 10.0 mi Calm Calm - N/A   Clear
7:53 PM 32.0 °F 28.7 °F 23.0 °F 69% 29.74 in 8.0 mi Variable 3.5 mph - N/A   Clear
8:53 PM 30.0 °F - 24.1 °F 79% 29.73 in 9.0 mi Calm Calm - N/A   Mostly Cloudy
9:53 PM 28.0 °F - 23.0 °F 81% 29.76 in 8.0 mi Calm Calm - N/A   Overcast
10:53 PM 28.0 °F - 24.1 °F 85% 29.76 in 8.0 mi Calm Calm - N/A   Overcast
11:53 PM 33.1 °F - 25.0 °F 72% 29.77 in 8.0 mi Calm Calm - N/A   Overcast